#datetime,building,power
2022-01-10T00:00:00,mcc,42.29
2022-01-10T00:01:00,mcc,41.99
2022-01-10T00:02:00,mcc,53.26
2022-01-10T00:03:00,mcc,44.89
2022-01-10T00:04:00,mcc,43.92
2022-01-10T00:05:00,mcc,55.29
2022-01-10T00:06:00,mcc,54.70
2022-01-10T00:07:00,mcc,52.61
2022-01-10T00:08:00,mcc,51.18
2022-01-10T00:09:00,mcc,42.82
2022-01-10T00:10:00,mcc,39.95
2022-01-10T00:11:00,mcc,39.82
2022-01-10T00:12:00,mcc,39.75
2022-01-10T00:13:00,mcc,39.37
2022-01-10T00:14:00,mcc,38.93
2022-01-10T00:15:00,mcc,38.39
2022-01-10T00:16:00,mcc,37.27
2022-01-10T00:17:00,mcc,38.27
2022-01-10T00:18:00,mcc,39.77
2022-01-10T00:19:00,mcc,42.21
2022-01-10T00:20:00,mcc,39.36
2022-01-10T00:21:00,mcc,40.59
2022-01-10T00:22:00,mcc,39.58
2022-01-10T00:23:00,mcc,38.04
2022-01-10T00:24:00,mcc,38.26
2022-01-10T00:25:00,mcc,39.63
2022-01-10T00:26:00,mcc,40.94
2022-01-10T00:27:00,mcc,40.28
2022-01-10T00:28:00,mcc,41.19
2022-01-10T00:29:00,mcc,39.42
2022-01-10T00:30:00,mcc,39.97
2022-01-10T00:31:00,mcc,41.78
2022-01-10T00:32:00,mcc,41.27
2022-01-10T00:33:00,mcc,40.01
2022-01-10T00:34:00,mcc,39.87
2022-01-10T00:35:00,mcc,40.81
2022-01-10T00:36:00,mcc,40.65
2022-01-10T00:37:00,mcc,51.47
2022-01-10T00:38:00,mcc,40.36
2022-01-10T00:39:00,mcc,40.30
2022-01-10T00:40:00,mcc,39.57
2022-01-10T00:41:00,mcc,40.77
2022-01-10T00:42:00,mcc,40.59
2022-01-10T00:43:00,mcc,38.75
2022-01-10T00:44:00,mcc,38.63
2022-01-10T00:45:00,mcc,40.18
2022-01-10T00:46:00,mcc,38.64
2022-01-10T00:47:00,mcc,40.50
2022-01-10T00:48:00,mcc,41.83
2022-01-10T00:49:00,mcc,41.25
2022-01-10T00:50:00,mcc,42.57
2022-01-10T00:51:00,mcc,41.80
2022-01-10T00:52:00,mcc,39.71
2022-01-10T00:53:00,mcc,38.52
2022-01-10T00:54:00,mcc,38.57
2022-01-10T00:55:00,mcc,38.88
2022-01-10T00:56:00,mcc,39.34
2022-01-10T00:57:00,mcc,41.72
2022-01-10T00:58:00,mcc,39.44
2022-01-10T00:59:00,mcc,39.36
2022-01-10T01:00:00,mcc,36.77
2022-01-10T01:01:00,mcc,37.69
2022-01-10T01:02:00,mcc,37.31
2022-01-10T01:03:00,mcc,37.59
2022-01-10T01:04:00,mcc,36.69
2022-01-10T01:05:00,mcc,38.54
2022-01-10T01:06:00,mcc,38.50
2022-01-10T01:07:00,mcc,38.37
2022-01-10T01:08:00,mcc,36.76
2022-01-10T01:09:00,mcc,37.20
2022-01-10T01:10:00,mcc,36.73
2022-01-10T01:11:00,mcc,38.34
2022-01-10T01:12:00,mcc,39.94
2022-01-10T01:13:00,mcc,41.49
2022-01-10T01:14:00,mcc,49.71
2022-01-10T01:15:00,mcc,38.66
2022-01-10T01:16:00,mcc,36.99
2022-01-10T01:17:00,mcc,36.63
2022-01-10T01:18:00,mcc,36.62
2022-01-10T01:19:00,mcc,36.93
2022-01-10T01:20:00,mcc,38.16
2022-01-10T01:21:00,mcc,37.35
2022-01-10T01:22:00,mcc,40.42
2022-01-10T01:23:00,mcc,39.48
2022-01-10T01:24:00,mcc,38.59
2022-01-10T01:25:00,mcc,39.24
2022-01-10T01:26:00,mcc,39.28
2022-01-10T01:27:00,mcc,39.55
2022-01-10T01:28:00,mcc,41.10
2022-01-10T01:29:00,mcc,40.12
2022-01-10T01:30:00,mcc,39.89
2022-01-10T01:31:00,mcc,39.90
2022-01-10T01:32:00,mcc,39.62
2022-01-10T01:33:00,mcc,39.88
2022-01-10T01:34:00,mcc,39.36
2022-01-10T01:35:00,mcc,38.44
2022-01-10T01:36:00,mcc,37.15
2022-01-10T01:37:00,mcc,39.31
2022-01-10T01:38:00,mcc,40.88
2022-01-10T01:39:00,mcc,42.28
2022-01-10T01:40:00,mcc,40.17
2022-01-10T01:41:00,mcc,39.70
2022-01-10T01:42:00,mcc,41.55
2022-01-10T01:43:00,mcc,39.46
2022-01-10T01:44:00,mcc,40.49
2022-01-10T01:45:00,mcc,39.71
2022-01-10T01:46:00,mcc,38.16
2022-01-10T01:47:00,mcc,38.53
2022-01-10T01:48:00,mcc,39.16
2022-01-10T01:49:00,mcc,46.89
2022-01-10T01:50:00,mcc,38.76
2022-01-10T01:51:00,mcc,38.84
2022-01-10T01:52:00,mcc,40.19
2022-01-10T01:53:00,mcc,41.15
2022-01-10T01:54:00,mcc,39.91
2022-01-10T01:55:00,mcc,39.30
2022-01-10T01:56:00,mcc,36.69
2022-01-10T01:57:00,mcc,38.78
2022-01-10T01:58:00,mcc,37.18
2022-01-10T01:59:00,mcc,38.08
2022-01-10T02:00:00,mcc,38.40
2022-01-10T02:01:00,mcc,39.01
2022-01-10T02:02:00,mcc,37.62
2022-01-10T02:03:00,mcc,35.52
2022-01-10T02:04:00,mcc,35.66
2022-01-10T02:05:00,mcc,37.08
2022-01-10T02:06:00,mcc,37.55
2022-01-10T02:07:00,mcc,45.24
2022-01-10T02:08:00,mcc,36.55
2022-01-10T02:09:00,mcc,35.82
2022-01-10T02:10:00,mcc,38.93
2022-01-10T02:11:00,mcc,36.85
2022-01-10T02:12:00,mcc,38.00
2022-01-10T02:13:00,mcc,38.57
2022-01-10T02:14:00,mcc,39.16
2022-01-10T02:15:00,mcc,40.46
2022-01-10T02:16:00,mcc,41.47
2022-01-10T02:17:00,mcc,42.21
2022-01-10T02:18:00,mcc,42.06
2022-01-10T02:19:00,mcc,41.83
2022-01-10T02:20:00,mcc,39.59
2022-01-10T02:21:00,mcc,36.64
2022-01-10T02:22:00,mcc,37.49
2022-01-10T02:23:00,mcc,38.76
2022-01-10T02:24:00,mcc,40.95
2022-01-10T02:25:00,mcc,48.85
2022-01-10T02:26:00,mcc,38.52
2022-01-10T02:27:00,mcc,44.36
2022-01-10T02:28:00,mcc,43.69
2022-01-10T02:29:00,mcc,43.39
2022-01-10T02:30:00,mcc,44.61
2022-01-10T02:31:00,mcc,36.08
2022-01-10T02:32:00,mcc,37.22
2022-01-10T02:33:00,mcc,37.00
2022-01-10T02:34:00,mcc,36.14
2022-01-10T02:35:00,mcc,37.42
2022-01-10T02:36:00,mcc,38.21
2022-01-10T02:37:00,mcc,37.14
2022-01-10T02:38:00,mcc,37.69
2022-01-10T02:39:00,mcc,36.83
2022-01-10T02:40:00,mcc,38.07
2022-01-10T02:41:00,mcc,36.84
2022-01-10T02:42:00,mcc,44.03
2022-01-10T02:43:00,mcc,36.58
2022-01-10T02:44:00,mcc,36.90
2022-01-10T02:45:00,mcc,35.77
2022-01-10T02:46:00,mcc,37.25
2022-01-10T02:47:00,mcc,34.35
2022-01-10T02:48:00,mcc,34.30
2022-01-10T02:49:00,mcc,34.65
2022-01-10T02:50:00,mcc,36.15
2022-01-10T02:51:00,mcc,35.35
2022-01-10T02:52:00,mcc,36.00
2022-01-10T02:53:00,mcc,35.44
2022-01-10T02:54:00,mcc,37.24
2022-01-10T02:55:00,mcc,37.07
2022-01-10T02:56:00,mcc,38.50
2022-01-10T02:57:00,mcc,38.51
2022-01-10T02:58:00,mcc,38.35
2022-01-10T02:59:00,mcc,37.90
2022-01-10T03:00:00,mcc,60.01
2022-01-10T03:01:00,mcc,41.66
2022-01-10T03:02:00,mcc,37.37
2022-01-10T03:03:00,mcc,35.84
2022-01-10T03:04:00,mcc,37.19
2022-01-10T03:05:00,mcc,40.84
2022-01-10T03:06:00,mcc,41.36
2022-01-10T03:07:00,mcc,40.97
2022-01-10T03:08:00,mcc,39.29
2022-01-10T03:09:00,mcc,38.38
2022-01-10T03:10:00,mcc,37.11
2022-01-10T03:11:00,mcc,38.36
2022-01-10T03:12:00,mcc,37.34
2022-01-10T03:13:00,mcc,35.38
2022-01-10T03:14:00,mcc,34.69
2022-01-10T03:15:00,mcc,32.84
2022-01-10T03:16:00,mcc,33.16
2022-01-10T03:17:00,mcc,35.24
2022-01-10T03:18:00,mcc,37.73
2022-01-10T03:19:00,mcc,38.16
2022-01-10T03:20:00,mcc,37.06
2022-01-10T03:21:00,mcc,35.42
2022-01-10T03:22:00,mcc,34.64
2022-01-10T03:23:00,mcc,34.08
2022-01-10T03:24:00,mcc,35.53
2022-01-10T03:25:00,mcc,36.92
2022-01-10T03:26:00,mcc,34.16
2022-01-10T03:27:00,mcc,33.72
2022-01-10T03:28:00,mcc,34.19
2022-01-10T03:29:00,mcc,35.40
2022-01-10T03:30:00,mcc,35.80
2022-01-10T03:31:00,mcc,38.41
2022-01-10T03:32:00,mcc,36.95
2022-01-10T03:33:00,mcc,36.47
2022-01-10T03:34:00,mcc,35.82
2022-01-10T03:35:00,mcc,37.08
2022-01-10T03:36:00,mcc,39.12
2022-01-10T03:37:00,mcc,38.12
2022-01-10T03:38:00,mcc,36.39
2022-01-10T03:39:00,mcc,33.89
2022-01-10T03:40:00,mcc,36.22
2022-01-10T03:41:00,mcc,38.09
2022-01-10T03:42:00,mcc,40.01
2022-01-10T03:43:00,mcc,39.11
2022-01-10T03:44:00,mcc,38.38
2022-01-10T03:45:00,mcc,35.54
2022-01-10T03:46:00,mcc,36.07
2022-01-10T03:47:00,mcc,35.66
2022-01-10T03:48:00,mcc,36.16
2022-01-10T03:49:00,mcc,35.48
2022-01-10T03:50:00,mcc,34.04
2022-01-10T03:51:00,mcc,36.31
2022-01-10T03:52:00,mcc,35.00
2022-01-10T03:53:00,mcc,43.61
2022-01-10T03:54:00,mcc,36.67
2022-01-10T03:55:00,mcc,35.72
2022-01-10T03:56:00,mcc,35.69
2022-01-10T03:57:00,mcc,35.67
2022-01-10T03:58:00,mcc,34.80
2022-01-10T03:59:00,mcc,35.81
2022-01-10T04:00:00,mcc,35.82
2022-01-10T04:01:00,mcc,37.68
2022-01-10T04:02:00,mcc,38.04
2022-01-10T04:03:00,mcc,39.11
2022-01-10T04:04:00,mcc,38.00
2022-01-10T04:05:00,mcc,38.91
2022-01-10T04:06:00,mcc,37.71
2022-01-10T04:07:00,mcc,36.86
2022-01-10T04:08:00,mcc,37.14
2022-01-10T04:09:00,mcc,35.18
2022-01-10T04:10:00,mcc,34.26
2022-01-10T04:11:00,mcc,35.08
2022-01-10T04:12:00,mcc,36.03
2022-01-10T04:13:00,mcc,37.59
2022-01-10T04:14:00,mcc,48.42
2022-01-10T04:15:00,mcc,46.15
2022-01-10T04:16:00,mcc,44.67
2022-01-10T04:17:00,mcc,36.93
2022-01-10T04:18:00,mcc,35.99
2022-01-10T04:19:00,mcc,36.30
2022-01-10T04:20:00,mcc,35.51
2022-01-10T04:21:00,mcc,34.31
2022-01-10T04:22:00,mcc,34.82
2022-01-10T04:23:00,mcc,37.33
2022-01-10T04:24:00,mcc,36.67
2022-01-10T04:25:00,mcc,39.13
2022-01-10T04:26:00,mcc,37.63
2022-01-10T04:27:00,mcc,35.96
2022-01-10T04:28:00,mcc,35.40
2022-01-10T04:29:00,mcc,44.21
2022-01-10T04:30:00,mcc,34.09
2022-01-10T04:31:00,mcc,34.45
2022-01-10T04:32:00,mcc,34.09
2022-01-10T04:33:00,mcc,33.52
2022-01-10T04:34:00,mcc,33.63
2022-01-10T04:35:00,mcc,32.96
2022-01-10T04:36:00,mcc,33.27
2022-01-10T04:37:00,mcc,35.68
2022-01-10T04:38:00,mcc,35.32
2022-01-10T04:39:00,mcc,35.72
2022-01-10T04:40:00,mcc,37.35
2022-01-10T04:41:00,mcc,36.52
2022-01-10T04:42:00,mcc,34.69
2022-01-10T04:43:00,mcc,37.97
2022-01-10T04:44:00,mcc,37.08
2022-01-10T04:45:00,mcc,36.20
2022-01-10T04:46:00,mcc,35.99
2022-01-10T04:47:00,mcc,43.83
2022-01-10T04:48:00,mcc,36.75
2022-01-10T04:49:00,mcc,36.69
2022-01-10T04:50:00,mcc,38.20
2022-01-10T04:51:00,mcc,38.92
2022-01-10T04:52:00,mcc,39.43
2022-01-10T04:53:00,mcc,37.59
2022-01-10T04:54:00,mcc,36.93
2022-01-10T04:55:00,mcc,36.35
2022-01-10T04:56:00,mcc,36.63
2022-01-10T04:57:00,mcc,37.63
2022-01-10T04:58:00,mcc,37.95
2022-01-10T04:59:00,mcc,37.16
2022-01-10T05:00:00,mcc,36.82
2022-01-10T05:01:00,mcc,35.56
2022-01-10T05:02:00,mcc,37.10
2022-01-10T05:03:00,mcc,35.70
2022-01-10T05:04:00,mcc,37.41
2022-01-10T05:05:00,mcc,45.73
2022-01-10T05:06:00,mcc,38.10
2022-01-10T05:07:00,mcc,39.39
2022-01-10T05:08:00,mcc,39.53
2022-01-10T05:09:00,mcc,39.83
2022-01-10T05:10:00,mcc,39.39
2022-01-10T05:11:00,mcc,40.17
2022-01-10T05:12:00,mcc,40.58
2022-01-10T05:13:00,mcc,37.84
2022-01-10T05:14:00,mcc,41.39
2022-01-10T05:15:00,mcc,40.91
2022-01-10T05:16:00,mcc,41.34
2022-01-10T05:17:00,mcc,40.55
2022-01-10T05:18:00,mcc,40.92
2022-01-10T05:19:00,mcc,39.85
2022-01-10T05:20:00,mcc,49.50
2022-01-10T05:21:00,mcc,42.66
2022-01-10T05:22:00,mcc,41.37
2022-01-10T05:23:00,mcc,39.13
2022-01-10T05:24:00,mcc,40.82
2022-01-10T05:25:00,mcc,39.78
2022-01-10T05:26:00,mcc,39.07
2022-01-10T05:27:00,mcc,39.31
2022-01-10T05:28:00,mcc,41.81
2022-01-10T05:29:00,mcc,42.21
2022-01-10T05:30:00,mcc,39.75
2022-01-10T05:31:00,mcc,39.54
2022-01-10T05:32:00,mcc,38.62
2022-01-10T05:33:00,mcc,39.27
2022-01-10T05:34:00,mcc,37.72
2022-01-10T05:35:00,mcc,39.14
2022-01-10T05:36:00,mcc,36.74
2022-01-10T05:37:00,mcc,38.22
2022-01-10T05:38:00,mcc,38.17
2022-01-10T05:39:00,mcc,40.58
2022-01-10T05:40:00,mcc,41.20
2022-01-10T05:41:00,mcc,48.95
2022-01-10T05:42:00,mcc,40.18
2022-01-10T05:43:00,mcc,39.06
2022-01-10T05:44:00,mcc,40.15
2022-01-10T05:45:00,mcc,41.17
2022-01-10T05:46:00,mcc,40.32
2022-01-10T05:47:00,mcc,37.72
2022-01-10T05:48:00,mcc,36.05
2022-01-10T05:49:00,mcc,37.00
2022-01-10T05:50:00,mcc,36.38
2022-01-10T05:51:00,mcc,38.11
2022-01-10T05:52:00,mcc,38.26
2022-01-10T05:53:00,mcc,38.55
2022-01-10T05:54:00,mcc,37.33
2022-01-10T05:55:00,mcc,44.11
2022-01-10T05:56:00,mcc,43.54
2022-01-10T05:57:00,mcc,45.89
2022-01-10T05:58:00,mcc,44.07
2022-01-10T05:59:00,mcc,38.52
2022-01-10T06:00:00,mcc,43.64
2022-01-10T06:01:00,mcc,36.31
2022-01-10T06:02:00,mcc,35.74
2022-01-10T06:03:00,mcc,36.77
2022-01-10T06:04:00,mcc,36.94
2022-01-10T06:05:00,mcc,37.78
2022-01-10T06:06:00,mcc,39.59
2022-01-10T06:07:00,mcc,38.00
2022-01-10T06:08:00,mcc,37.63
2022-01-10T06:09:00,mcc,38.94
2022-01-10T06:10:00,mcc,38.14
2022-01-10T06:11:00,mcc,38.19
2022-01-10T06:12:00,mcc,37.01
2022-01-10T06:13:00,mcc,35.61
2022-01-10T06:14:00,mcc,35.83
2022-01-10T06:15:00,mcc,36.99
2022-01-10T06:16:00,mcc,39.89
2022-01-10T06:17:00,mcc,46.51
2022-01-10T06:18:00,mcc,38.35
2022-01-10T06:19:00,mcc,37.92
2022-01-10T06:20:00,mcc,38.12
2022-01-10T06:21:00,mcc,38.66
2022-01-10T06:22:00,mcc,38.23
2022-01-10T06:23:00,mcc,41.10
2022-01-10T06:24:00,mcc,41.50
2022-01-10T06:25:00,mcc,42.11
2022-01-10T06:26:00,mcc,39.72
2022-01-10T06:27:00,mcc,44.55
2022-01-10T06:28:00,mcc,45.49
2022-01-10T06:29:00,mcc,46.66
2022-01-10T06:30:00,mcc,44.61
2022-01-10T06:31:00,mcc,42.21
2022-01-10T06:32:00,mcc,41.44
2022-01-10T06:33:00,mcc,41.91
2022-01-10T06:34:00,mcc,40.78
2022-01-10T06:35:00,mcc,43.98
2022-01-10T06:36:00,mcc,50.71
2022-01-10T06:37:00,mcc,43.62
2022-01-10T06:38:00,mcc,46.73
2022-01-10T06:39:00,mcc,43.63
2022-01-10T06:40:00,mcc,38.94
2022-01-10T06:41:00,mcc,38.93
2022-01-10T06:42:00,mcc,38.32
2022-01-10T06:43:00,mcc,41.53
2022-01-10T06:44:00,mcc,43.48
2022-01-10T06:45:00,mcc,43.72
2022-01-10T06:46:00,mcc,44.34
2022-01-10T06:47:00,mcc,50.67
2022-01-10T06:48:00,mcc,53.25
2022-01-10T06:49:00,mcc,56.03
2022-01-10T06:50:00,mcc,70.55
2022-01-10T06:51:00,mcc,52.16
2022-01-10T06:52:00,mcc,54.65
2022-01-10T06:53:00,mcc,61.14
2022-01-10T06:54:00,mcc,51.86
2022-01-10T06:55:00,mcc,53.93
2022-01-10T06:56:00,mcc,53.66
2022-01-10T06:57:00,mcc,50.37
2022-01-10T06:58:00,mcc,50.01
2022-01-10T06:59:00,mcc,52.58
2022-01-10T07:00:00,mcc,43.56
2022-01-10T07:01:00,mcc,45.06
2022-01-10T07:02:00,mcc,46.06
2022-01-10T07:03:00,mcc,43.31
2022-01-10T07:04:00,mcc,43.56
2022-01-10T07:05:00,mcc,44.61
2022-01-10T07:06:00,mcc,51.90
2022-01-10T07:07:00,mcc,51.66
2022-01-10T07:08:00,mcc,49.81
2022-01-10T07:09:00,mcc,48.23
2022-01-10T07:10:00,mcc,47.60
2022-01-10T07:11:00,mcc,58.57
2022-01-10T07:12:00,mcc,50.07
2022-01-10T07:13:00,mcc,50.23
2022-01-10T07:14:00,mcc,49.47
2022-01-10T07:15:00,mcc,48.51
2022-01-10T07:16:00,mcc,48.30
2022-01-10T07:17:00,mcc,48.21
2022-01-10T07:18:00,mcc,40.83
2022-01-10T07:19:00,mcc,41.45
2022-01-10T07:20:00,mcc,50.51
2022-01-10T07:21:00,mcc,51.66
2022-01-10T07:22:00,mcc,52.31
2022-01-10T07:23:00,mcc,47.30
2022-01-10T07:24:00,mcc,54.45
2022-01-10T07:25:00,mcc,52.66
2022-01-10T07:26:00,mcc,45.75
2022-01-10T07:27:00,mcc,45.49
2022-01-10T07:28:00,mcc,49.84
2022-01-10T07:29:00,mcc,40.71
2022-01-10T07:30:00,mcc,41.01
2022-01-10T07:31:00,mcc,42.34
2022-01-10T07:32:00,mcc,41.13
2022-01-10T07:33:00,mcc,43.54
2022-01-10T07:34:00,mcc,43.05
2022-01-10T07:35:00,mcc,42.50
2022-01-10T07:36:00,mcc,42.62
2022-01-10T07:37:00,mcc,44.56
2022-01-10T07:38:00,mcc,42.90
2022-01-10T07:39:00,mcc,49.24
2022-01-10T07:40:00,mcc,50.43
2022-01-10T07:41:00,mcc,44.05
2022-01-10T07:42:00,mcc,47.63
2022-01-10T07:43:00,mcc,47.59
2022-01-10T07:44:00,mcc,71.53
2022-01-10T07:45:00,mcc,53.90
2022-01-10T07:46:00,mcc,53.92
2022-01-10T07:47:00,mcc,60.23
2022-01-10T07:48:00,mcc,45.60
2022-01-10T07:49:00,mcc,54.85
2022-01-10T07:50:00,mcc,46.30
2022-01-10T07:51:00,mcc,44.47
2022-01-10T07:52:00,mcc,46.17
2022-01-10T07:53:00,mcc,45.83
2022-01-10T07:54:00,mcc,47.82
2022-01-10T07:55:00,mcc,54.38
2022-01-10T07:56:00,mcc,49.22
2022-01-10T07:57:00,mcc,48.16
2022-01-10T07:58:00,mcc,50.85
2022-01-10T07:59:00,mcc,48.52
2022-01-10T08:00:00,mcc,46.90
2022-01-10T08:01:00,mcc,45.89
2022-01-10T08:02:00,mcc,48.12
2022-01-10T08:03:00,mcc,48.68
2022-01-10T08:04:00,mcc,65.25
2022-01-10T08:05:00,mcc,55.21
2022-01-10T08:06:00,mcc,57.14
2022-01-10T08:07:00,mcc,57.60
2022-01-10T08:08:00,mcc,58.19
2022-01-10T08:09:00,mcc,49.53
2022-01-10T08:10:00,mcc,65.61
2022-01-10T08:11:00,mcc,48.11
2022-01-10T08:12:00,mcc,50.18
2022-01-10T08:13:00,mcc,61.54
2022-01-10T08:14:00,mcc,69.23
2022-01-10T08:15:00,mcc,68.87
2022-01-10T08:16:00,mcc,59.00
2022-01-10T08:17:00,mcc,58.73
2022-01-10T08:18:00,mcc,59.86
2022-01-10T08:19:00,mcc,59.69
2022-01-10T08:20:00,mcc,58.66
2022-01-10T08:21:00,mcc,59.14
2022-01-10T08:22:00,mcc,59.23
2022-01-10T08:23:00,mcc,57.69
2022-01-10T08:24:00,mcc,58.08
2022-01-10T08:25:00,mcc,59.19
2022-01-10T08:26:00,mcc,52.18
2022-01-10T08:27:00,mcc,57.81
2022-01-10T08:28:00,mcc,60.64
2022-01-10T08:29:00,mcc,59.99
2022-01-10T08:30:00,mcc,61.32
2022-01-10T08:31:00,mcc,57.70
2022-01-10T08:32:00,mcc,49.32
2022-01-10T08:33:00,mcc,50.95
2022-01-10T08:34:00,mcc,52.08
2022-01-10T08:35:00,mcc,52.38
2022-01-10T08:36:00,mcc,53.65
2022-01-10T08:37:00,mcc,52.80
2022-01-10T08:38:00,mcc,58.20
2022-01-10T08:39:00,mcc,58.98
2022-01-10T08:40:00,mcc,61.12
2022-01-10T08:41:00,mcc,53.88
2022-01-10T08:42:00,mcc,55.64
2022-01-10T08:43:00,mcc,60.05
2022-01-10T08:44:00,mcc,58.37
2022-01-10T08:45:00,mcc,65.45
2022-01-10T08:46:00,mcc,63.99
2022-01-10T08:47:00,mcc,74.33
2022-01-10T08:48:00,mcc,52.13
2022-01-10T08:49:00,mcc,50.13
2022-01-10T08:50:00,mcc,51.28
2022-01-10T08:51:00,mcc,51.30
2022-01-10T08:52:00,mcc,59.35
2022-01-10T08:53:00,mcc,57.73
2022-01-10T08:54:00,mcc,61.27
2022-01-10T08:55:00,mcc,52.30
2022-01-10T08:56:00,mcc,48.57
2022-01-10T08:57:00,mcc,49.22
2022-01-10T08:58:00,mcc,49.93
2022-01-10T08:59:00,mcc,58.59
2022-01-10T09:00:00,mcc,60.73
2022-01-10T09:01:00,mcc,60.50
2022-01-10T09:02:00,mcc,54.11
2022-01-10T09:03:00,mcc,53.68
2022-01-10T09:04:00,mcc,57.12
2022-01-10T09:05:00,mcc,56.52
2022-01-10T09:06:00,mcc,52.89
2022-01-10T09:07:00,mcc,59.93
2022-01-10T09:08:00,mcc,60.57
2022-01-10T09:09:00,mcc,52.30
2022-01-10T09:10:00,mcc,53.72
2022-01-10T09:11:00,mcc,52.65
2022-01-10T09:12:00,mcc,52.05
2022-01-10T09:13:00,mcc,50.86
2022-01-10T09:14:00,mcc,59.13
2022-01-10T09:15:00,mcc,68.44
2022-01-10T09:16:00,mcc,52.78
2022-01-10T09:17:00,mcc,53.18
2022-01-10T09:18:00,mcc,54.28
2022-01-10T09:19:00,mcc,52.81
2022-01-10T09:20:00,mcc,60.55
2022-01-10T09:21:00,mcc,62.15
2022-01-10T09:22:00,mcc,62.84
2022-01-10T09:23:00,mcc,55.63
2022-01-10T09:24:00,mcc,54.19
2022-01-10T09:25:00,mcc,50.56
2022-01-10T09:26:00,mcc,51.60
2022-01-10T09:27:00,mcc,58.96
2022-01-10T09:28:00,mcc,60.44
2022-01-10T09:29:00,mcc,56.05
2022-01-10T09:30:00,mcc,53.18
2022-01-10T09:31:00,mcc,50.00
2022-01-10T09:32:00,mcc,47.90
2022-01-10T09:33:00,mcc,48.71
2022-01-10T09:34:00,mcc,56.66
2022-01-10T09:35:00,mcc,56.24
2022-01-10T09:36:00,mcc,54.11
2022-01-10T09:37:00,mcc,53.36
2022-01-10T09:38:00,mcc,55.94
2022-01-10T09:39:00,mcc,58.20
2022-01-10T09:40:00,mcc,64.70
2022-01-10T09:41:00,mcc,64.09
2022-01-10T09:42:00,mcc,61.26
2022-01-10T09:43:00,mcc,52.54
2022-01-10T09:44:00,mcc,54.28
2022-01-10T09:45:00,mcc,54.95
2022-01-10T09:46:00,mcc,55.36
2022-01-10T09:47:00,mcc,56.77
2022-01-10T09:48:00,mcc,66.51
2022-01-10T09:49:00,mcc,63.17
2022-01-10T09:50:00,mcc,54.32
2022-01-10T09:51:00,mcc,63.82
2022-01-10T09:52:00,mcc,56.01
2022-01-10T09:53:00,mcc,52.54
2022-01-10T09:54:00,mcc,60.50
2022-01-10T09:55:00,mcc,58.87
2022-01-10T09:56:00,mcc,50.86
2022-01-10T09:57:00,mcc,54.81
2022-01-10T09:58:00,mcc,55.93
2022-01-10T09:59:00,mcc,55.13
2022-01-10T10:00:00,mcc,55.95
2022-01-10T10:01:00,mcc,65.20
2022-01-10T10:02:00,mcc,62.93
2022-01-10T10:03:00,mcc,52.49
2022-01-10T10:04:00,mcc,50.36
2022-01-10T10:05:00,mcc,51.69
2022-01-10T10:06:00,mcc,51.63
2022-01-10T10:07:00,mcc,53.52
2022-01-10T10:08:00,mcc,62.11
2022-01-10T10:09:00,mcc,63.70
2022-01-10T10:10:00,mcc,53.82
2022-01-10T10:11:00,mcc,53.00
2022-01-10T10:12:00,mcc,55.40
2022-01-10T10:13:00,mcc,62.77
2022-01-10T10:14:00,mcc,63.18
2022-01-10T10:15:00,mcc,63.22
2022-01-10T10:16:00,mcc,61.45
2022-01-10T10:17:00,mcc,76.72
2022-01-10T10:18:00,mcc,59.62
2022-01-10T10:19:00,mcc,63.59
2022-01-10T10:20:00,mcc,54.72
2022-01-10T10:21:00,mcc,56.77
2022-01-10T10:22:00,mcc,54.68
2022-01-10T10:23:00,mcc,54.33
2022-01-10T10:24:00,mcc,51.95
2022-01-10T10:25:00,mcc,54.20
2022-01-10T10:26:00,mcc,54.10
2022-01-10T10:27:00,mcc,59.18
2022-01-10T10:28:00,mcc,58.28
2022-01-10T10:29:00,mcc,59.50
2022-01-10T10:30:00,mcc,50.75
2022-01-10T10:31:00,mcc,54.15
2022-01-10T10:32:00,mcc,55.24
2022-01-10T10:33:00,mcc,57.15
2022-01-10T10:34:00,mcc,63.44
2022-01-10T10:35:00,mcc,62.65
2022-01-10T10:36:00,mcc,60.86
2022-01-10T10:37:00,mcc,59.78
2022-01-10T10:38:00,mcc,64.61
2022-01-10T10:39:00,mcc,57.87
2022-01-10T10:40:00,mcc,57.73
2022-01-10T10:41:00,mcc,57.08
2022-01-10T10:42:00,mcc,56.29
2022-01-10T10:43:00,mcc,65.07
2022-01-10T10:44:00,mcc,65.14
2022-01-10T10:45:00,mcc,64.06
2022-01-10T10:46:00,mcc,57.41
2022-01-10T10:47:00,mcc,55.43
2022-01-10T10:48:00,mcc,57.47
2022-01-10T10:49:00,mcc,58.34
2022-01-10T10:50:00,mcc,65.22
2022-01-10T10:51:00,mcc,66.86
2022-01-10T10:52:00,mcc,60.52
2022-01-10T10:53:00,mcc,60.98
2022-01-10T10:54:00,mcc,62.70
2022-01-10T10:55:00,mcc,61.30
2022-01-10T10:56:00,mcc,61.34
2022-01-10T10:57:00,mcc,62.01
2022-01-10T10:58:00,mcc,68.60
2022-01-10T10:59:00,mcc,69.05
2022-01-10T11:00:00,mcc,62.82
2022-01-10T11:01:00,mcc,60.92
2022-01-10T11:02:00,mcc,60.42
2022-01-10T11:03:00,mcc,67.83
2022-01-10T11:04:00,mcc,60.85
2022-01-10T11:05:00,mcc,66.03
2022-01-10T11:06:00,mcc,67.73
2022-01-10T11:07:00,mcc,58.32
2022-01-10T11:08:00,mcc,58.22
2022-01-10T11:09:00,mcc,57.75
2022-01-10T11:10:00,mcc,59.40
2022-01-10T11:11:00,mcc,66.76
2022-01-10T11:12:00,mcc,59.64
2022-01-10T11:13:00,mcc,59.52
2022-01-10T11:14:00,mcc,59.90
2022-01-10T11:15:00,mcc,58.32
2022-01-10T11:16:00,mcc,59.31
2022-01-10T11:17:00,mcc,62.21
2022-01-10T11:18:00,mcc,59.98
2022-01-10T11:19:00,mcc,59.98
2022-01-10T11:20:00,mcc,59.53
2022-01-10T11:21:00,mcc,66.73
2022-01-10T11:22:00,mcc,58.29
2022-01-10T11:23:00,mcc,56.48
2022-01-10T11:24:00,mcc,59.77
2022-01-10T11:25:00,mcc,66.96
2022-01-10T11:26:00,mcc,59.79
2022-01-10T11:27:00,mcc,62.29
2022-01-10T11:28:00,mcc,61.24
2022-01-10T11:29:00,mcc,59.16
2022-01-10T11:30:00,mcc,59.33
2022-01-10T11:31:00,mcc,58.09
2022-01-10T11:32:00,mcc,59.09
2022-01-10T11:33:00,mcc,68.32
2022-01-10T11:34:00,mcc,58.04
2022-01-10T11:35:00,mcc,59.16
2022-01-10T11:36:00,mcc,57.92
2022-01-10T11:37:00,mcc,59.40
2022-01-10T11:38:00,mcc,60.06
2022-01-10T11:39:00,mcc,68.40
2022-01-10T11:40:00,mcc,63.73
2022-01-10T11:41:00,mcc,62.75
2022-01-10T11:42:00,mcc,66.34
2022-01-10T11:43:00,mcc,60.36
2022-01-10T11:44:00,mcc,56.95
2022-01-10T11:45:00,mcc,58.03
2022-01-10T11:46:00,mcc,57.84
2022-01-10T11:47:00,mcc,59.21
2022-01-10T11:48:00,mcc,58.11
2022-01-10T11:49:00,mcc,56.62
2022-01-10T11:50:00,mcc,64.05
2022-01-10T11:51:00,mcc,58.50
2022-01-10T11:52:00,mcc,58.11
2022-01-10T11:53:00,mcc,60.36
2022-01-10T11:54:00,mcc,58.47
2022-01-10T11:55:00,mcc,59.45
2022-01-10T11:56:00,mcc,67.18
2022-01-10T11:57:00,mcc,64.50
2022-01-10T11:58:00,mcc,64.33
2022-01-10T11:59:00,mcc,55.87
2022-01-10T12:00:00,mcc,59.09
2022-01-10T12:01:00,mcc,58.34
2022-01-10T12:02:00,mcc,59.30
2022-01-10T12:03:00,mcc,59.15
2022-01-10T12:04:00,mcc,58.15
2022-01-10T12:05:00,mcc,67.15
2022-01-10T12:06:00,mcc,57.65
2022-01-10T12:07:00,mcc,65.67
2022-01-10T12:08:00,mcc,54.79
2022-01-10T12:09:00,mcc,55.53
2022-01-10T12:10:00,mcc,53.14
2022-01-10T12:11:00,mcc,63.59
2022-01-10T12:12:00,mcc,63.90
2022-01-10T12:13:00,mcc,65.42
2022-01-10T12:14:00,mcc,64.46
2022-01-10T12:15:00,mcc,73.42
2022-01-10T12:16:00,mcc,56.93
2022-01-10T12:17:00,mcc,62.39
2022-01-10T12:18:00,mcc,62.98
2022-01-10T12:19:00,mcc,67.45
2022-01-10T12:20:00,mcc,68.49
2022-01-10T12:21:00,mcc,65.09
2022-01-10T12:22:00,mcc,63.59
2022-01-10T12:23:00,mcc,70.28
2022-01-10T12:24:00,mcc,61.67
2022-01-10T12:25:00,mcc,61.85
2022-01-10T12:26:00,mcc,63.60
2022-01-10T12:27:00,mcc,71.37
2022-01-10T12:28:00,mcc,70.79
2022-01-10T12:29:00,mcc,70.61
2022-01-10T12:30:00,mcc,64.30
2022-01-10T12:31:00,mcc,75.50
2022-01-10T12:32:00,mcc,69.35
2022-01-10T12:33:00,mcc,61.52
2022-01-10T12:34:00,mcc,63.81
2022-01-10T12:35:00,mcc,62.73
2022-01-10T12:36:00,mcc,62.57
2022-01-10T12:37:00,mcc,64.04
2022-01-10T12:38:00,mcc,62.19
2022-01-10T12:39:00,mcc,64.31
2022-01-10T12:40:00,mcc,69.18
2022-01-10T12:41:00,mcc,63.62
2022-01-10T12:42:00,mcc,64.62
2022-01-10T12:43:00,mcc,62.46
2022-01-10T12:44:00,mcc,63.00
2022-01-10T12:45:00,mcc,63.03
2022-01-10T12:46:00,mcc,61.32
2022-01-10T12:47:00,mcc,63.92
2022-01-10T12:48:00,mcc,70.32
2022-01-10T12:49:00,mcc,69.53
2022-01-10T12:50:00,mcc,69.83
2022-01-10T12:51:00,mcc,68.05
2022-01-10T12:52:00,mcc,63.22
2022-01-10T12:53:00,mcc,79.00
2022-01-10T12:54:00,mcc,66.35
2022-01-10T12:55:00,mcc,65.05
2022-01-10T12:56:00,mcc,64.56
2022-01-10T12:57:00,mcc,69.54
2022-01-10T12:58:00,mcc,62.43
2022-01-10T12:59:00,mcc,60.92
2022-01-10T13:00:00,mcc,60.43
2022-01-10T13:01:00,mcc,60.13
2022-01-10T13:02:00,mcc,59.20
2022-01-10T13:03:00,mcc,60.00
2022-01-10T13:04:00,mcc,63.61
2022-01-10T13:05:00,mcc,72.46
2022-01-10T13:06:00,mcc,66.34
2022-01-10T13:07:00,mcc,66.27
2022-01-10T13:08:00,mcc,64.53
2022-01-10T13:09:00,mcc,63.25
2022-01-10T13:10:00,mcc,78.14
2022-01-10T13:11:00,mcc,62.09
2022-01-10T13:12:00,mcc,76.09
2022-01-10T13:13:00,mcc,62.50
2022-01-10T13:14:00,mcc,62.07
2022-01-10T13:15:00,mcc,63.66
2022-01-10T13:16:00,mcc,63.13
2022-01-10T13:17:00,mcc,82.80
2022-01-10T13:18:00,mcc,74.22